Time,TemperatureF,DewpointF,PressureIn,WindDirection,WindDirectionDegrees,WindSpeedMPH,WindSpeedGustMPH,Humidity,HourlyPrecipIn,Conditions,Clouds,dailyrainin,SoftwareType,DateUTC
2013-06-21 00:01:00,63.0,56.4,29.82,West,270,4.0,9.0,79,0.00,,,0.00,Weather View 32 v70,2013-06-21 04:01:00,
2013-06-21 00:06:00,64.0,57.0,29.82,West,270,6.0,9.0,78,0.00,,,0.00,Weather View 32 v70,2013-06-21 04:06:00,
2013-06-21 00:11:00,64.0,57.0,29.82,West,270,6.0,9.0,78,0.00,,,0.00,Weather View 32 v70,2013-06-21 04:11:00,
2013-06-21 00:16:00,64.0,57.0,29.82,West,270,4.0,9.0,78,0.00,,,0.00,Weather View 32 v70,2013-06-21 04:16:00,
2013-06-21 00:21:00,64.0,57.0,29.82,WSW,247,5.0,8.0,78,0.00,,,0.00,Weather View 32 v70,2013-06-21 04:21:00,
2013-06-21 00:26:00,64.0,57.3,29.82,West,270,3.0,8.0,79,0.00,,,0.00,Weather View 32 v70,2013-06-21 04:26:00,
2013-06-21 00:31:00,63.0,56.4,29.82,WSW,247,2.0,8.0,79,0.00,,,0.00,Weather View 32 v70,2013-06-21 04:31:00,
2013-06-21 00:36:00,63.0,56.7,29.82,West,270,5.0,8.0,80,0.00,,,0.00,Weather View 32 v70,2013-06-21 04:36:00,
2013-06-21 00:41:00,63.0,56.7,29.82,West,270,2.0,8.0,80,0.00,,,0.00,Weather View 32 v70,2013-06-21 04:41:00,
2013-06-21 00:46:00,63.0,56.7,29.83,West,270,3.0,7.0,80,0.00,,,0.00,Weather View 32 v70,2013-06-21 04:46:00,
2013-06-21 00:51:00,63.0,57.1,29.83,West,270,4.0,7.0,81,0.00,,,0.00,Weather View 32 v70,2013-06-21 04:51:00,
2013-06-21 00:56:00,62.0,56.8,29.82,West,270,2.0,7.0,83,0.00,,,0.00,Weather View 32 v70,2013-06-21 04:56:00,
2013-06-21 01:01:00,62.0,57.1,29.82,West,270,2.0,7.0,84,0.00,,,0.00,Weather View 32 v70,2013-06-21 05:01:00,
2013-06-21 01:06:00,62.0,57.8,29.82,West,270,3.0,7.0,86,0.00,,,0.00,Weather View 32 v70,2013-06-21 05:06:00,
2013-06-21 01:11:00,61.0,57.1,29.82,West,270,1.0,7.0,87,0.00,,,0.00,Weather View 32 v70,2013-06-21 05:11:00,
2013-06-21 01:16:00,61.0,57.1,29.83,West,270,2.0,7.0,87,0.00,,,0.00,Weather View 32 v70,2013-06-21 05:16:00,
2013-06-21 01:21:00,61.0,57.4,29.83,West,270,2.0,7.0,88,0.00,,,0.00,Weather View 32 v70,2013-06-21 05:21:00,
2013-06-21 01:26:00,61.0,57.4,29.83,West,270,2.0,7.0,88,0.00,,,0.00,Weather View 32 v70,2013-06-21 05:26:00,
2013-06-21 01:31:00,61.0,57.7,29.83,West,270,3.0,7.0,89,0.00,,,0.00,Weather View 32 v70,2013-06-21 05:31:00,
2013-06-21 01:36:00,61.0,58.0,29.83,WSW,247,3.0,7.0,90,0.00,,,0.00,Weather View 32 v70,2013-06-21 05:36:00,
2013-06-21 01:41:00,60.0,57.0,29.83,West,270,3.0,7.0,90,0.00,,,0.00,Weather View 32 v70,2013-06-21 05:41:00,
2013-06-21 01:46:00,60.0,57.4,29.83,West,270,3.0,7.0,91,0.00,,,0.00,Weather View 32 v70,2013-06-21 05:46:00,
2013-06-21 01:51:00,60.0,57.4,29.83,West,270,2.0,7.0,91,0.00,,,0.00,Weather View 32 v70,2013-06-21 05:51:00,
2013-06-21 01:56:00,60.0,57.4,29.83,West,270,3.0,6.0,91,0.00,,,0.00,Weather View 32 v70,2013-06-21 05:56:00,
2013-06-21 02:01:00,60.0,57.4,29.83,West,270,3.0,6.0,91,0.00,,,0.00,Weather View 32 v70,2013-06-21 06:01:00,
2013-06-21 02:06:00,60.0,57.7,29.83,West,270,3.0,6.0,92,0.00,,,0.00,Weather View 32 v70,2013-06-21 06:06:00,
2013-06-21 02:11:00,60.0,58.3,29.83,West,270,5.0,6.0,94,0.00,,,0.00,Weather View 32 v70,2013-06-21 06:11:00,
2013-06-21 02:16:00,59.0,57.3,29.82,WSW,247,5.0,7.0,94,0.00,,,0.00,Weather View 32 v70,2013-06-21 06:16:00,
2013-06-21 02:21:00,59.0,57.3,29.82,West,270,3.0,7.0,94,0.00,,,0.00,Weather View 32 v70,2013-06-21 06:21:00,
2013-06-21 02:26:00,59.0,57.3,29.83,West,270,4.0,7.0,94,0.00,,,0.00,Weather View 32 v70,2013-06-21 06:26:00,
2013-06-21 02:31:00,59.0,57.3,29.83,West,270,4.0,7.0,94,0.00,,,0.00,Weather View 32 v70,2013-06-21 06:31:00,
2013-06-21 02:36:00,59.0,57.3,29.83,WSW,247,5.0,7.0,94,0.00,,,0.00,Weather View 32 v70,2013-06-21 06:36:00,
2013-06-21 02:41:00,59.0,57.6,29.83,West,270,3.0,7.0,95,0.00,,,0.00,Weather View 32 v70,2013-06-21 06:41:00,
2013-06-21 02:46:00,59.0,57.6,29.83,West,270,3.0,7.0,95,0.00,,,0.00,Weather View 32 v70,2013-06-21 06:46:00,
2013-06-21 02:51:00,59.0,57.6,29.83,West,270,3.0,7.0,95,0.00,,,0.00,Weather View 32 v70,2013-06-21 06:51:00,
2013-06-21 02:56:00,59.0,57.6,29.83,West,270,3.0,7.0,95,0.00,,,0.00,Weather View 32 v70,2013-06-21 06:56:00,
2013-06-21 03:01:00,59.0,57.6,29.83,West,270,3.0,7.0,95,0.00,,,0.00,Weather View 32 v70,2013-06-21 07:01:00,
2013-06-21 03:06:00,59.0,57.9,29.82,West,270,3.0,7.0,96,0.00,,,0.00,Weather View 32 v70,2013-06-21 07:06:00,
2013-06-21 03:11:00,58.0,56.9,29.82,West,270,3.0,7.0,96,0.00,,,0.00,Weather View 32 v70,2013-06-21 07:11:00,
2013-06-21 03:16:00,58.0,56.9,29.82,West,270,4.0,7.0,96,0.00,,,0.00,Weather View 32 v70,2013-06-21 07:16:00,
2013-06-21 03:21:00,58.0,56.9,29.82,West,270,3.0,7.0,96,0.00,,,0.00,Weather View 32 v70,2013-06-21 07:21:00,
2013-06-21 03:26:00,58.0,56.9,29.81,West,270,4.0,7.0,96,0.00,,,0.00,Weather View 32 v70,2013-06-21 07:26:00,
2013-06-21 03:31:00,58.0,56.9,29.81,WNW,292,6.0,7.0,96,0.00,,,0.00,Weather View 32 v70,2013-06-21 07:31:00,
2013-06-21 03:36:00,58.0,56.9,29.82,West,270,3.0,7.0,96,0.00,,,0.00,Weather View 32 v70,2013-06-21 07:36:00,
2013-06-21 03:41:00,58.0,56.6,29.82,West,270,5.0,7.0,95,0.00,,,0.00,Weather View 32 v70,2013-06-21 07:41:00,
2013-06-21 03:46:00,58.0,56.6,29.82,West,270,4.0,7.0,95,0.00,,,0.00,Weather View 32 v70,2013-06-21 07:46:00,
2013-06-21 03:51:00,58.0,56.3,29.82,WSW,247,5.0,7.0,94,0.00,,,0.00,Weather View 32 v70,2013-06-21 07:51:00,
2013-06-21 03:56:00,58.0,56.3,29.82,West,270,3.0,7.0,94,0.00,,,0.00,Weather View 32 v70,2013-06-21 07:56:00,
2013-06-21 04:01:00,58.0,56.3,29.82,West,270,5.0,7.0,94,0.00,,,0.00,Weather View 32 v70,2013-06-21 08:01:00,
2013-06-21 04:06:00,58.0,56.3,29.83,West,270,4.0,7.0,94,0.00,,,0.00,Weather View 32 v70,2013-06-21 08:06:00,
2013-06-21 04:11:00,58.0,56.3,29.83,West,270,3.0,7.0,94,0.00,,,0.00,Weather View 32 v70,2013-06-21 08:11:00,
2013-06-21 04:16:00,58.0,56.0,29.82,West,270,4.0,7.0,93,0.00,,,0.00,Weather View 32 v70,2013-06-21 08:16:00,
2013-06-21 04:21:00,58.0,56.0,29.82,West,270,3.0,7.0,93,0.00,,,0.00,Weather View 32 v70,2013-06-21 08:21:00,
2013-06-21 04:26:00,58.0,56.0,29.82,West,270,3.0,7.0,93,0.00,,,0.00,Weather View 32 v70,2013-06-21 08:26:00,
2013-06-21 04:31:00,58.0,56.0,29.82,West,270,3.0,7.0,93,0.00,,,0.00,Weather View 32 v70,2013-06-21 08:31:00,
2013-06-21 04:36:00,58.0,56.0,29.82,West,270,5.0,7.0,93,0.00,,,0.00,Weather View 32 v70,2013-06-21 08:36:00,
2013-06-21 04:41:00,58.0,56.0,29.82,West,270,3.0,7.0,93,0.00,,,0.00,Weather View 32 v70,2013-06-21 08:41:00,
2013-06-21 04:46:00,57.0,55.0,29.82,West,270,5.0,7.0,93,0.00,,,0.00,Weather View 32 v70,2013-06-21 08:46:00,
2013-06-21 04:51:00,57.0,55.3,29.82,West,270,4.0,7.0,94,0.00,,,0.00,Weather View 32 v70,2013-06-21 08:51:00,
2013-06-21 04:56:00,57.0,55.0,29.83,West,270,5.0,7.0,93,0.00,,,0.00,Weather View 32 v70,2013-06-21 08:56:00,
2013-06-21 05:01:00,57.0,55.0,29.83,West,270,3.0,7.0,93,0.00,,,0.00,Weather View 32 v70,2013-06-21 09:01:00,
2013-06-21 05:06:00,57.0,55.0,29.83,West,270,4.0,7.0,93,0.00,,,0.00,Weather View 32 v70,2013-06-21 09:06:00,
2013-06-21 05:11:00,57.0,55.0,29.83,West,270,5.0,7.0,93,0.00,,,0.00,Weather View 32 v70,2013-06-21 09:11:00,
2013-06-21 05:16:00,57.0,55.0,29.83,West,270,3.0,7.0,93,0.00,,,0.00,Weather View 32 v70,2013-06-21 09:16:00,
2013-06-21 05:21:00,57.0,55.0,29.83,West,270,4.0,7.0,93,0.00,,,0.00,Weather View 32 v70,2013-06-21 09:21:00,
2013-06-21 05:26:00,57.0,55.0,29.84,West,270,4.0,7.0,93,0.00,,,0.00,Weather View 32 v70,2013-06-21 09:26:00,
2013-06-21 05:31:00,57.0,55.0,29.84,West,270,3.0,7.0,93,0.00,,,0.00,Weather View 32 v70,2013-06-21 09:31:00,
2013-06-21 05:36:00,57.0,55.0,29.84,West,270,4.0,7.0,93,0.00,,,0.00,Weather View 32 v70,2013-06-21 09:36:00,
2013-06-21 05:41:00,57.0,55.3,29.84,West,270,3.0,7.0,94,0.00,,,0.00,Weather View 32 v70,2013-06-21 09:41:00,
2013-06-21 05:46:00,57.0,55.3,29.84,West,270,4.0,7.0,94,0.00,,,0.00,Weather View 32 v70,2013-06-21 09:46:00,
2013-06-21 05:51:00,57.0,55.0,29.84,West,270,2.0,7.0,93,0.00,,,0.00,Weather View 32 v70,2013-06-21 09:51:00,
2013-06-21 05:56:00,57.0,55.0,29.84,West,270,5.0,7.0,93,0.00,,,0.00,Weather View 32 v70,2013-06-21 09:56:00,
2013-06-21 06:01:00,57.0,54.7,29.84,West,270,6.0,7.0,92,0.00,,,0.00,Weather View 32 v70,2013-06-21 10:01:00,
2013-06-21 06:06:00,58.0,55.7,29.83,West,270,3.0,7.0,92,0.00,,,0.00,Weather View 32 v70,2013-06-21 10:06:00,
2013-06-21 06:11:00,58.0,55.4,29.83,West,270,4.0,7.0,91,0.00,,,0.00,Weather View 32 v70,2013-06-21 10:11:00,
2013-06-21 06:16:00,58.0,55.4,29.84,West,270,3.0,7.0,91,0.00,,,0.00,Weather View 32 v70,2013-06-21 10:16:00,
2013-06-21 06:21:00,58.0,55.1,29.84,West,270,4.0,7.0,90,0.00,,,0.00,Weather View 32 v70,2013-06-21 10:21:00,
2013-06-21 06:26:00,58.0,55.4,29.84,West,270,6.0,7.0,91,0.00,,,0.00,Weather View 32 v70,2013-06-21 10:26:00,
2013-06-21 06:31:00,58.0,55.4,29.84,West,270,6.0,7.0,91,0.00,,,0.00,Weather View 32 v70,2013-06-21 10:31:00,
2013-06-21 06:36:00,58.0,55.7,29.84,West,270,4.0,7.0,92,0.00,,,0.00,Weather View 32 v70,2013-06-21 10:36:00,
2013-06-21 06:41:00,58.0,55.7,29.84,West,270,2.0,7.0,92,0.00,,,0.00,Weather View 32 v70,2013-06-21 10:41:00,
2013-06-21 06:46:00,58.0,55.4,29.84,West,270,4.0,7.0,91,0.00,,,0.00,Weather View 32 v70,2013-06-21 10:46:00,
2013-06-21 06:51:00,58.0,55.7,29.84,West,270,2.0,7.0,92,0.00,,,0.00,Weather View 32 v70,2013-06-21 10:51:00,
2013-06-21 06:56:00,58.0,55.7,29.84,West,270,4.0,7.0,92,0.00,,,0.00,Weather View 32 v70,2013-06-21 10:56:00,
2013-06-21 07:01:00,58.0,55.7,29.84,West,270,2.0,7.0,92,0.00,,,0.00,Weather View 32 v70,2013-06-21 11:01:00,
2013-06-21 07:06:00,59.0,56.7,29.83,West,270,3.0,7.0,92,0.00,,,0.00,Weather View 32 v70,2013-06-21 11:06:00,
2013-06-21 07:11:00,59.0,56.4,29.83,West,270,2.0,7.0,91,0.00,,,0.00,Weather View 32 v70,2013-06-21 11:11:00,
2013-06-21 07:16:00,60.0,56.4,29.82,West,270,3.0,7.0,88,0.00,,,0.00,Weather View 32 v70,2013-06-21 11:16:00,
2013-06-21 07:21:00,61.0,56.8,29.82,WSW,247,2.0,7.0,86,0.00,,,0.00,Weather View 32 v70,2013-06-21 11:21:00,
2013-06-21 07:26:00,61.0,56.1,29.83,SW,225,3.0,7.0,84,0.00,,,0.00,Weather View 32 v70,2013-06-21 11:26:00,
2013-06-21 07:31:00,62.0,56.8,29.83,NW,315,2.0,7.0,83,0.00,,,0.00,Weather View 32 v70,2013-06-21 11:31:00,
2013-06-21 07:36:00,62.0,56.8,29.82,WSW,247,6.0,7.0,83,0.00,,,0.00,Weather View 32 v70,2013-06-21 11:36:00,
2013-06-21 07:41:00,62.0,56.4,29.82,West,270,5.0,7.0,82,0.00,,,0.00,Weather View 32 v70,2013-06-21 11:41:00,
2013-06-21 07:46:00,62.0,56.4,29.82,WSW,247,6.0,7.0,82,0.00,,,0.00,Weather View 32 v70,2013-06-21 11:46:00,
2013-06-21 07:51:00,62.0,56.1,29.82,West,270,6.0,7.0,81,0.00,,,0.00,Weather View 32 v70,2013-06-21 11:51:00,
2013-06-21 07:56:00,63.0,57.4,29.81,West,270,4.0,7.0,82,0.00,,,0.00,Weather View 32 v70,2013-06-21 11:56:00,
2013-06-21 08:01:00,63.0,57.1,29.81,West,270,4.0,7.0,81,0.00,,,0.00,Weather View 32 v70,2013-06-21 12:01:00,
2013-06-21 08:06:00,63.0,57.4,29.81,WSW,247,3.0,7.0,82,0.00,,,0.00,Weather View 32 v70,2013-06-21 12:06:00,
2013-06-21 08:11:00,64.0,58.0,29.81,West,270,6.0,7.0,81,0.00,,,0.00,Weather View 32 v70,2013-06-21 12:11:00,
2013-06-21 08:16:00,64.0,58.0,29.81,West,270,6.0,7.0,81,0.00,,,0.00,Weather View 32 v70,2013-06-21 12:16:00,
2013-06-21 08:21:00,64.0,57.7,29.81,WNW,292,5.0,7.0,80,0.00,,,0.00,Weather View 32 v70,2013-06-21 12:21:00,
2013-06-21 08:26:00,64.0,57.7,29.82,West,270,4.0,7.0,80,0.00,,,0.00,Weather View 32 v70,2013-06-21 12:26:00,
2013-06-21 08:30:00,64.0,57.3,29.82,West,270,3.0,7.0,79,0.00,,,0.00,Weather View 32 v70,2013-06-21 12:30:00,
2013-06-21 08:31:00,64.0,57.0,29.82,West,270,2.0,7.0,78,0.00,,,0.00,Weather View 32 v70,2013-06-21 12:31:00,